Location: Bu�n Treun
(12.1333°N, 108.3167°E)
Time: 00:26:21
(UTC+00:00)

Aurora 2 Rocket - Pass Details

Date: 13 July 2020
Orbit: 390 x 1744 km, 25.0° (Epoch: 03 August)

Event Time Altitude Azimuth Distance (km) Brightness Sun altitude
Rises 12:10:30 0° 298° (WNW) 3,376 8.4 -13.0°
Reaches altitude 10° 12:12:43 10° 301° (WNW) 2,617 7.2 -13.5°
Maximum altitude 12:19:12 64° 22° (NNE) 1,291 4.1 -14.9°
Enters shadow 12:25:47 20° 99° (E) 2,818 5.3 -16.3°
